SENTINEL-6

Last updated on Wed Oct 22 2025 00:02:31 GMT+0000 (Coordinated Universal Time)

1 46984U 20086A 25294.32927225 -.00000058 00000+0 14072-4 0 9992 2 46984 66.0398 271.1637 0007972 268.5922 91.4180 12.80928904229730
UTC large
Height (km)
Speed (km/s)
/
Latitude / Longitude
Inclination (degrees)
Orbital Period (minutes)
Azimuth
Elevation
Range (km)
Doppler Factor

Next 0 passes for location: London (51.5072 / 0.1276)

Sorry there are no passes over London.